This is the latest recevied weather packets stored in our database for station/object N3EG. If no packets are shown the sender has not sent any weather packets the latest 10 day(s).
| Time | Temp. | Humidity | Pressure | Rain* | Wind** | Luminosity | Snow |
|---|---|---|---|---|---|---|---|
| 1777749902 | 16.67° C | 79% | 1016 hPa | 0 mm | - | - | - |
| 1777749603 | 16.67° C | 76% | 1016 hPa | 0 mm | - | - | - |
| 1777749303 | 16.67° C | 78% | 1016.2 hPa | 0 mm | - | - | - |
| 1777749002 | 16.67° C | 79% | 1016.4 hPa | 0 mm | - | - | - |
| 1777748703 | 16.11° C | 80% | 1016.4 hPa | 0 mm | - | - | - |
| 1777748402 | 16.11° C | 81% | 1016.5 hPa | 0 mm | - | - | - |
| 1777748102 | 15.56° C | 79% | 1016.5 hPa | 0 mm | - | - | - |
| 1777747803 | 15.56° C | 81% | 1016.5 hPa | 0 mm | - | - | - |
| 1777747502 | 15° C | 81% | 1016.6 hPa | 0 mm | - | - | - |
| 1777747203 | 15° C | 83% | 1016.7 hPa | 0 mm | - | - | - |
| 1777746903 | 14.44° C | 81% | 1016.8 hPa | 0 mm | - | - | - |
| 1777746602 | 14.44° C | 83% | 1016.9 hPa | 0 mm | - | - | - |
| 1777746303 | 14.44° C | 82% | 1016.9 hPa | 0 mm | - | - | - |
| 1777746003 | 13.89° C | 83% | 1016.9 hPa | 0 mm | - | - | - |
| 1777745702 | 13.89° C | 82% | 1017 hPa | 0 mm | - | - | - |
| 1777745403 | 13.89° C | 84% | 1017.1 hPa | 0 mm | - | - | - |
| 1777745103 | 13.33° C | 84% | 1017.2 hPa | 0 mm | - | - | - |
| 1777744803 | 13.33° C | 85% | 1017.2 hPa | 0 mm | - | - | - |
| 1777744503 | 13.33° C | 85% | 1017.1 hPa | 0 mm | - | - | - |
| 1777744202 | 12.78° C | 85% | 1017.1 hPa | 0 mm | - | - | - |
| 1777743903 | 12.78° C | 87% | 1017 hPa | 0 mm | - | - | - |
| 1777743603 | 12.78° C | 86% | 1017 hPa | 0 mm | - | - | - |
| 1777743302 | 12.22° C | 87% | 1017 hPa | 0 mm | - | - | - |
| 1777743003 | 12.22° C | 86% | 1017.1 hPa | 0 mm | - | - | - |
| 1777742703 | 12.22° C | 86% | 1017 hPa | 0 mm | - | - | - |
* Rain latest hour (hover to see other rain measurements)
** Current wind speed in m/s (hover to see current wind gust speed)